This is the latest recevied weather packets stored in our database for station/object KD4KKF. If no packets are shown the sender has not sent any weather packets the latest 10 day(s).
| Time | Temp. | Humidity | Pressure | Rain* | Wind** | Luminosity | Snow |
|---|---|---|---|---|---|---|---|
| 1777446536 | 17.78° C | 99% | 1013.9 hPa | 3.05 mm | - | 0 W/m² | - |
| 1777446232 | 17.78° C | 99% | 1014.4 hPa | 4.83 mm | - | 0 W/m² | - |
| 1777445930 | 17.78° C | 99% | 1013.5 hPa | 7.87 mm | - | 0 W/m² | - |
| 1777445625 | 17.78° C | 99% | 1013.3 hPa | 7.87 mm | - | 0 W/m² | - |
| 1777445322 | 17.78° C | 99% | 1013.8 hPa | 6.1 mm | - | 0 W/m² | - |
| 1777445018 | 17.78° C | 99% | 1014 hPa | 4.83 mm | - | 0 W/m² | - |
| 1777444714 | 17.78° C | 99% | 1013.6 hPa | 7.87 mm | - | 0 W/m² | - |
| 1777444410 | 17.78° C | 99% | 1013.8 hPa | 7.87 mm | - | 0 W/m² | - |
| 1777444108 | 17.78° C | 99% | 1013.9 hPa | 4.83 mm | - | 0 W/m² | - |
| 1777443802 | 17.78° C | 99% | 1013.8 hPa | 4.32 mm | - | 0 W/m² | - |
| 1777443492 | 17.78° C | 99% | 1013.6 hPa | 3.05 mm | - | 0 W/m² | - |
| 1777443190 | 17.78° C | 99% | 1013.9 hPa | 1.78 mm | - | 0 W/m² | - |
| 1777442887 | 17.78° C | 99% | 1014 hPa | 3.05 mm | - | 0 W/m² | - |
| 1777442583 | 17.78° C | 99% | 1013.8 hPa | 7.87 mm | - | 0 W/m² | - |
| 1777442278 | 17.78° C | 99% | 1013.6 hPa | 24.64 mm | - | 0 W/m² | - |
| 1777441975 | 17.78° C | 99% | 1014.3 hPa | 19.81 mm | - | 0 W/m² | - |
| 1777441670 | 17.78° C | 99% | 1015.6 hPa | 0 mm | - | 0 W/m² | - |
| 1777441366 | 17.78° C | 99% | 1014 hPa | 0 mm | - | 0 W/m² | - |
| 1777441061 | 17.78° C | 99% | 1012.9 hPa | 1.78 mm | - | 0 W/m² | - |
| 1777440757 | 17.22° C | 99% | 1012.2 hPa | 3.05 mm | - | 0 W/m² | - |
| 1777440159 | 17.78° C | 99% | 1013.3 hPa | 28.7 mm | - | 0 W/m² | - |
| 1777439856 | 17.78° C | 99% | 1013.3 hPa | 28.7 mm | - | 0 W/m² | - |
| 1777439547 | 17.78° C | 99% | 1014.7 hPa | 89.92 mm | - | 0 W/m² | - |
| 1777439247 | 17.78° C | 99% | 1013.8 hPa | 121.67 mm | - | 0 W/m² | - |
| 1777438944 | 18.33° C | 99% | 1015 hPa | 27.69 mm | - | 0 W/m² | - |
* Rain latest hour (hover to see other rain measurements)
** Current wind speed in m/s (hover to see current wind gust speed)